Regional Weather Roundup
Issued by NWS

Home | Current Version | Previous Version | Text Only | Print | Product List | Glossary On
Versions: 1 2 3 4 5 6 7 8 9 10 11 12 13 14 15 16 17 18 19 20 21 22 23 24 25 26 27 28 29 30 31 32 33 34 35 36 37 38 39 40 41 42 43 44 45 46 47 48 49 50
000
ASUS43 KDTX 211010
RWRMI
MICHIGAN HOURLY REGIONAL WEATHER ROUNDUP
NATIONAL WEATHER SERVICE DETROIT/PONTIAC MI
ISSUED BY NATIONAL WEATHER SERVICE GRAND RAPIDS MI
500 AM EST SAT JAN 21 2017

NOTE: "FAIR" INDICATES FEW OR NO CLOUDS BELOW 12,000 FEET WITH NO
SIGNIFICANT WEATHER AND/OR OBSTRUCTION TO VISIBILITY.

MIZ047>049-052>055-059>063-066>070-074>076-081>083-211100-
SOUTHEAST LOWER MICHIGAN

CITY           SKY/WX    TMP DP  RH WIND       PRES   REMARKS
ADRIAN         FOG       41  41 100 CALM      29.70F VSB 1/4
ALMA           FOG       35  34  99 E7        29.68F VSB 1/2 WCI  29
ANN ARBOR      FOG       41  41 100 NE3       29.70F VSB 1/2
BAD AXE        FOG       34  34 100 SE5       29.73F VSB 3/4 WCI  30
DETROIT CITY   FOG       39  39 100 E3        29.74S VSB 1/4
DETROIT        FOG       41  41 100 E5        29.72F VSB 1/4
FLINT          CLOUDY    38  38 100 E9        29.70F WCI  31
GROSSE ILE     FOG       39  38  99 CALM      29.72F VSB 1/2
HILLSDALE      CLOUDY    45  45 100 SE7       29.67F FOG
HOWELL         CLOUDY    42  41  97 SE5       29.69F FOG

CITY           SKY/WX    TMP DP  RH WIND       PRES   REMARKS
JACKSON        CLOUDY    45  43  93 SE9       29.67F FOG
LANSING        CLOUDY    43  41  93 SE7       29.67F FOG
MASON          CLOUDY    43  43 100 SE6       29.68S FOG
MONROE         CLOUDY    42  42 100 S5        29.71S FOG
MT. CLEMENS    FOG       37  37 100 E6        29.71F VSB 1/2 WCI  32
PONTIAC        FOG       40  38  93 E3        29.70F VSB 1/4
PORT HOPE        N/A     34  34 100 SE3       29.72F
PORT HURON     FOG       37  37 100 E3        29.74F VSB 1/4
TRI CITIES     FOG       35  35 100 E7        29.71F VSB 1/4 WCI  29
YPSILANTI      FOG       41  41 100 E3        29.72F VSB 1/4
$$
MIZ043>046-050>051-056>058-064>065-071>073-077>080-211100-
SOUTHWEST LOWER MICHIGAN

CITY           SKY/WX    TMP DP  RH WIND       PRES   REMARKS
BATTLE CREEK   CLOUDY    47  46  97 S10       29.65F
BENTON HARBOR  CLOUDY    50  46  86 SE8       29.61F
BIG RAPIDS     MIX PCPN  33  32  97 E5        29.65F VSB 3/4 WCI  29
COLDWATER      CLOUDY    47  47 100 SE8       29.66F FOG
HOLLAND        CLOUDY    42  40  92 E6        29.61F
GRAND RAPIDS   CLOUDY    39  37  92 E6        29.64F FOG     WCI  35
KALAMAZOO      CLOUDY    47  44  90 S7        29.64F FOG
MARSHALL       CLOUDY    47  47  97 SE6       29.65F FOG
MOUNT PLEASANT FOG       33  33  99 E3        29.68F VSB 1
MUSKEGON       CLOUDY    39  38  96 E7        29.62F FOG     WCI  34
STURGIS        CLOUDY    48  47  96 S6        29.64F FOG
$$
MIZ016>042-211100-
NORTHERN LOWER MICHIGAN

CITY           SKY/WX    TMP DP  RH WIND       PRES   REMARKS
ALPENA         CLOUDY    33  32  96 SE3       29.70F FOG
BEAVER ISLAND  CLOUDY    35  35 100 SE5       29.67S FOG     WCI  31
BELLAIRE       CLOUDY    33  32  99 CALM      29.67F FOG
CADILLAC       FOG       33  32  98 E5        29.63F VSB 3/4 WCI  28
CHARLEVOIX     CLOUDY    34  34 100 SE3       29.69F FOG
GAYLORD        CLOUDY    34  30  85 SE3       29.65F FOG
HOUGHTON LAKE  CLOUDY    32  31  96 SE5       29.68F WCI  27
MANISTEE       CLOUDY    34  33  96 E3        29.64S
OSCODA         FOG       33  32  98 S6        29.71F VSB 1/2 WCI  27
PELLSTON       CLOUDY    33  32  96 S3        29.68F FOG
TRAVERSE CITY  CLOUDY    35  32  88 E3        29.64F
LUDINGTON      CLOUDY    35  35 100 E6        29.62F FOG     WCI  30
$$
MIZ007>008-015-211100-
EASTERN UPPER MICHIGAN

CITY           SKY/WX    TMP DP  RH WIND       PRES   REMARKS
KINROSS        CLOUDY   N/A N/A N/A E5        29.69F FOG
MACKINAC ISLAN FOG       32  32 100 CALM      29.68F VSB 1/2
NEWBERRY       FOG       32  32  99 SE6       29.65F VSB 1/2 WCI  26
S. S. MARIE    CLOUDY    33  32  96 CALM      29.69F FOG
$$
MIZ004>006-011>014-085-211100-
CENTRAL UPPER MICHIGAN

CITY           SKY/WX    TMP DP  RH WIND       PRES   REMARKS
MANISTIQUE     FOG       33  33  97 SE3       29.64F VSB 1/4
ESCANABA       FOG       34  32  93 CALM      29.64F VSB 1/2
SAWYER-GWINN   FOG       32  31  99 S3        29.60F VSB 1
$$
MIZ001>003-009>011-084-211100-
WESTERN UPPER MICHIGAN

CITY           SKY/WX    TMP DP  RH WIND       PRES   REMARKS
IRON MOUNTAIN  FOG       32  30  92 SE5       29.59F VSB 3/4 WCI  27
HOUGHTON       FOG       34  32  92 E6        29.58F VSB 1/4 WCI  29
COPPER HARBOR    N/A     35  35 100 SW3       29.61F
IRONWOOD       CLOUDY    35  33  92 SE6       29.55F WCI  30
$$

ABBREVIATIONS USED IN REMARKS
   TC - TEMPERATURE IN CELSIUS
  WCI - WIND CHILL INDEX
   HX - HEAT INDEX
  VSB - VISIBILITY





USA.gov is the U.S. government's official web portal to all federal, state and local government web resources and services.